DateTimeUTC,F1_A11,F1_S11,BsB_S11,BsG_S11,BsR_S11,BbsB_S11,BbsG_S11,BbsR_S11,BaB_A11,BaG_A11,BaR_A11,Tu_S11,T_S11,Uu_S11,U_S11,P_S11,T1_A11
2021-05-01T10:00:00Z,00000200,21000000,,,,,,,0000.05,0000.24,0000.10,17.1,24.2,00.3,00.2,0682.3,31.1
2021-05-01T10:01:00Z,00000200,21000000,,,,,,,-000.06,0000.11,0000.07,17.1,24.3,00.3,00.2,0682.3,31.0
2021-05-01T10:02:00Z,00000200,21000000,,,,,,,-000.11,-000.38,-000.31,17.1,24.3,00.3,00.2,0682.3,31.1
2021-05-01T10:03:00Z,00000200,61000000,,,,,,,0000.06,0000.00,0000.15,17.1,24.3,00.3,00.2,0682.3,31.0
2021-05-01T10:04:00Z,00000200,41000000,-000.06,0000.09,0000.07,0000.51,0000.18,-000.08,-000.47,-000.53,-000.09,17.3,24.1,00.3,00.2,0683.2,31.0
2021-05-01T10:05:00Z,00000200,01000000,0000.68,0000.20,-000.22,-000.05,0000.11,-000.13,0000.08,0000.28,-000.20,17.3,24.1,00.3,00.2,0683.4,31.0
2021-05-01T10:06:00Z,00000200,01000000,0000.14,-000.01,-000.09,0000.60,0000.00,0000.08,-000.43,-000.64,-000.01,17.3,24.0,00.2,00.1,0683.4,31.0
2021-05-01T10:07:00Z,00000200,01000000,0000.98,0000.16,0000.52,-000.23,-000.10,0000.01,-000.19,0000.03,-000.24,17.3,24.0,00.1,00.1,0683.4,31.1
2021-05-01T10:08:00Z,00000200,01000000,0000.14,0000.01,0000.40,0000.31,0000.09,-000.02,-000.18,-000.23,-000.06,17.3,24.0,00.2,00.1,0683.4,31.1
2021-05-01T10:09:00Z,00000200,01000000,0000.25,0000.24,-000.15,-000.03,0000.05,0000.01,0000.01,0000.06,-000.08,17.3,24.0,00.1,00.1,0683.5,31.1
2021-05-01T10:10:00Z,00000200,01000000,-000.14,0000.48,0000.18,0000.36,0000.25,0000.09,0000.01,-000.41,-000.18,17.3,24.0,00.1,00.1,0683.5,31.0
2021-05-01T10:11:00Z,00000200,01000000,0000.49,0000.18,0000.33,-000.16,-000.05,0000.28,-000.32,-000.03,0000.01,17.3,24.0,00.1,00.1,0683.5,31.0
2021-05-01T10:12:00Z,00000200,01000000,0000.34,0000.33,-000.02,0000.07,-000.02,0000.10,0000.20,0000.31,-000.39,17.3,24.0,00.1,00.1,0683.5,31.0
2021-05-01T10:13:00Z,00000200,01000000,0000.84,0000.03,0000.02,-000.37,0000.17,-000.05,-000.01,-000.06,0000.67,17.3,24.0,00.1,00.1,0683.5,31.0
2021-05-01T10:14:00Z,00000200,01000000,-000.10,0000.07,0000.05,0000.59,-000.03,0000.19,0000.06,0000.17,0000.11,17.3,24.0,00.1,00.1,0683.5,31.0
2021-05-01T10:15:00Z,00000200,01000000,0000.83,0000.10,0000.35,0000.33,0000.19,-000.34,0000.28,0000.41,0000.23,17.3,24.0,00.1,00.1,0683.4,31.0
2021-05-01T10:16:00Z,00000200,01000000,0000.46,0000.07,0000.10,0000.15,0000.02,-000.28,0000.50,0000.28,0000.13,17.3,24.0,00.2,00.1,0683.4,31.0
2021-05-01T10:17:00Z,00000200,01000000,0000.38,0000.49,0000.07,0000.14,-000.06,0000.11,-000.01,0000.06,0000.13,17.3,24.0,00.2,00.1,0683.5,31.0
2021-05-01T10:18:00Z,00000200,01000000,-000.14,0000.24,0000.52,0000.37,0000.05,0000.07,0000.11,0000.22,-000.03,17.3,24.0,00.3,00.2,0683.5,31.0
2021-05-01T10:19:00Z,00000200,01000000,0000.52,-000.02,0000.13,0000.31,0000.14,-000.18,0000.26,-000.18,0000.36,17.3,24.0,00.3,00.2,0683.5,31.0
2021-05-01T10:20:00Z,00000200,01000000,0000.05,0000.12,-000.03,0000.39,0000.09,-000.24,0000.09,0000.11,-000.25,17.3,24.0,00.3,00.2,0683.5,31.0
2021-05-01T10:21:00Z,00000200,01000000,0000.38,0000.11,0000.03,0000.28,0000.07,-000.03,0000.16,0000.36,0000.06,17.3,24.0,00.3,00.2,0683.5,31.0
2021-05-01T10:22:00Z,00000200,01000000,0000.24,0000.02,0000.08,0000.13,0000.05,-000.03,0000.09,0000.23,0000.12,17.3,24.0,00.5,00.3,0683.5,31.0
2021-05-01T10:23:00Z,00000200,01000000,0000.26,0000.05,-000.01,0000.08,0000.21,-000.07,-000.06,-000.18,0000.15,17.3,24.0,00.4,00.3,0683.5,31.0
2021-05-01T10:24:00Z,00000200,01000000,0000.67,0000.08,0000.06,0000.22,-000.19,-000.04,0000.47,0000.22,-000.13,17.3,24.0,00.5,00.3,0683.5,31.0
2021-05-01T10:25:00Z,00000200,01000000,0000.22,0000.01,0000.15,0000.58,-000.00,0000.08,-000.00,0000.19,0000.29,17.3,24.0,00.5,00.3,0683.5,31.0
2021-05-01T10:26:00Z,00000200,01000000,0000.07,0000.07,0000.24,-000.25,-000.05,-000.01,0000.15,0000.04,0000.03,17.3,24.0,00.6,00.4,0683.5,31.1
2021-05-01T10:27:00Z,00000200,01000000,-000.11,0000.22,0000.18,-000.08,0000.03,0000.09,-000.03,-000.26,-000.01,17.3,24.0,00.5,00.4,0683.5,31.0
2021-05-01T10:28:00Z,00000200,01000000,0000.31,-000.08,0000.47,0000.13,0000.20,0000.12,0000.04,0000.41,-000.12,17.3,24.0,00.5,00.3,0683.5,31.0
2021-05-01T10:29:00Z,00000200,01000000,0000.43,0000.36,-000.23,-000.43,0000.12,-000.12,0000.01,-000.17,0000.14,17.3,24.0,00.5,00.3,0683.5,31.0
2021-05-01T10:30:00Z,00000200,01000000,0000.12,0000.35,0000.54,0000.27,0000.01,0000.10,-000.26,-000.22,-000.24,17.3,24.0,00.5,00.3,0683.5,31.0
2021-05-01T10:31:00Z,00000200,01000000,0000.30,0000.01,0000.13,0000.12,0000.03,0000.12,0000.01,-000.17,0000.11,17.3,24.0,00.4,00.3,0683.5,31.0
2021-05-01T10:32:00Z,00000200,01000000,0000.35,0000.16,0000.02,0000.01,0000.06,-000.20,0000.14,0000.07,0000.04,17.3,24.0,00.4,00.3,0683.5,31.0
2021-05-01T10:33:00Z,00000200,01000000,0000.19,0000.16,0000.15,-000.20,-000.15,0000.16,-000.18,0000.02,0000.07,17.3,24.0,00.4,00.3,0683.5,31.0
2021-05-01T10:34:00Z,00000200,01000000,0000.30,0000.39,0000.19,0000.33,0000.21,-000.26,0000.15,0000.15,-000.11,17.3,24.0,00.4,00.3,0683.5,31.0
2021-05-01T10:35:00Z,00000200,01000000,-000.23,0000.62,-000.01,0000.03,0000.14,-000.24,0000.35,0000.18,0000.13,17.3,24.0,00.5,00.3,0683.5,31.0
2021-05-01T10:36:00Z,00000200,01000000,-000.60,0000.21,0000.14,0000.10,0000.19,0000.02,0000.31,0000.34,0000.18,17.3,24.0,00.5,00.3,0683.5,31.0
2021-05-01T10:37:00Z,00000200,01000000,0000.62,0000.05,-000.01,0000.09,-000.07,-000.00,0000.13,0000.32,0000.27,17.3,24.0,00.5,00.3,0683.5,31.0
2021-05-01T10:38:00Z,00000200,01000000,0000.16,0000.08,0000.08,0000.19,-000.11,0000.10,0000.29,0000.20,0000.33,17.3,24.0,00.7,00.5,0683.5,31.0
2021-05-01T10:39:00Z,00000200,01000000,-000.49,-000.11,0000.27,0000.20,-000.05,-000.09,-000.08,0000.14,-000.12,17.3,24.0,00.8,00.5,0683.5,31.0
2021-05-01T10:40:00Z,00000200,01000000,0000.77,0000.11,0000.02,0000.50,0000.07,0000.01,-000.12,-000.06,-000.22,17.4,24.0,00.7,00.5,0683.5,31.0
2021-05-01T10:41:00Z,00000200,01000000,0000.12,0000.43,-000.00,0000.18,-000.12,0000.14,-000.11,-000.49,-000.10,17.3,24.0,00.7,00.5,0683.5,31.0
2021-05-01T10:42:00Z,00000200,01000000,0000.05,0000.03,0000.11,0000.33,0000.24,0000.08,0000.09,0000.35,0000.16,17.3,24.0,00.7,00.5,0683.5,31.0
2021-05-01T10:43:00Z,00000200,01000000,0000.64,0000.07,0000.17,-000.13,0000.11,-000.03,-000.47,-000.52,0000.11,17.3,24.0,00.6,00.4,0683.5,31.0
2021-05-01T10:44:00Z,00000200,01000000,0000.42,0000.35,0000.20,0000.01,-000.01,0000.16,0000.11,0000.13,-000.38,17.3,24.0,00.4,00.3,0683.5,31.0
2021-05-01T10:45:00Z,00000200,01000000,0000.18,0000.03,0000.36,0000.59,-000.05,0000.03,0000.44,0000.37,0000.15,17.3,24.0,00.6,00.4,0683.5,31.0
2021-05-01T10:46:00Z,00000200,01000000,0000.08,0000.26,0000.08,0000.38,-000.01,-000.30,0000.00,0000.07,0000.14,17.3,24.0,00.6,00.4,0683.5,31.0
2021-05-01T10:47:00Z,00000200,01000000,0000.34,0000.34,-000.20,-000.12,0000.18,-000.33,0000.25,-000.13,0000.01,17.3,24.0,00.6,00.4,0683.5,31.0
2021-05-01T10:48:00Z,00000200,01000000,0000.23,-000.01,-000.05,0000.35,-000.15,-000.11,0000.09,0000.33,0000.12,17.3,24.0,00.8,00.5,0683.5,31.0
2021-05-01T10:49:00Z,00000200,01000000,0000.18,0000.40,-000.08,0000.02,0000.23,-000.16,0000.27,0000.18,0000.23,17.3,24.0,00.8,00.5,0683.5,31.0
2021-05-01T10:50:00Z,00000200,01000000,-000.24,0000.05,0000.16,0000.21,0000.02,-000.01,0000.19,0000.08,-000.20,17.4,24.0,00.9,00.6,0683.5,31.0
2021-05-01T10:51:00Z,00000200,01000000,-000.18,0000.10,0000.13,-000.03,0000.03,0000.09,0000.02,0000.52,0000.33,17.4,24.0,00.9,00.6,0683.5,31.0
2021-05-01T10:52:00Z,00000200,01000000,-000.16,0000.17,-000.06,-000.11,0000.20,-000.28,0000.33,-000.13,0000.26,17.4,24.0,01.0,00.6,0683.5,31.0
2021-05-01T10:53:00Z,00000200,01000000,0001.08,0000.25,-000.14,0000.38,-000.15,-000.18,-000.21,0000.11,-000.15,17.4,24.0,01.1,00.7,0683.6,31.0
2021-05-01T10:54:00Z,00000200,01000000,0000.13,0000.10,-000.05,0000.12,0000.21,-000.11,-000.37,-000.39,-000.34,17.4,24.0,00.9,00.6,0683.6,31.0
2021-05-01T10:55:00Z,00000200,01000000,0000.07,0000.27,-000.03,0000.12,0000.09,-000.23,0000.20,0000.08,-000.08,17.4,24.0,00.9,00.6,0683.6,31.0
2021-05-01T10:56:00Z,00000200,01000000,0000.68,-000.01,0000.14,0000.15,-000.00,-000.03,-000.20,-000.08,0000.31,17.4,24.0,00.8,00.5,0683.6,31.1
2021-05-01T10:57:00Z,00000200,41000000,,,,,,,-000.23,-000.39,-000.47,17.4,24.1,00.3,00.2,0683.7,31.1
2021-05-01T10:58:00Z,00000200,61000000,,,,,,,-000.08,0000.04,0000.22,17.2,24.2,00.6,00.4,0682.6,31.0
2021-05-01T10:59:00Z,00000200,21000000,,,,,,,0000.49,0000.26,0000.17,17.1,24.3,00.6,00.4,0682.6,31.1
